Regional Weather Roundup
Issued by NWS Goodland, KS

Home | Current Version | Previous Version | Graphics & Text | Print | Product List | Glossary On
Versions: 1 2 3 4 5 6 7 8 9 10 11 12 13 14 15 16 17 18 19 20 21 22 23 24 25 26 27 28 29 30 31 32 33 34 35 36 37 38 39 40 41 42 43 44 45 46 47 48 49 50
433
ASUS43 KGLD 190659
RWRGLD

GOODLAND FORECAST AREA HOURLY WEATHER ROUNDUP
NATIONAL WEATHER SERVICE GOODLAND KS
1200 AM MST FRI JAN 19 2018

...OFFICIAL OBSERVATIONS...

CITY           SKY/WX    TMP DP  RH WIND       PRES   REMARKS
GOODLAND KS    CLOUDY    40  16  37 SW13      29.88F
HILL CITY KS   CLOUDY    36  14  40 W6        29.88F
IMPERIAL NEB   CLOUDY    33  24  69 W7        29.84F
MCCOOK NEB     CLOUDY    30  23  75 W6        29.85F
AKRON CO       PTCLDY    43   8  23 SW13      29.88F
BURLINGTON CO  CLOUDY    38  17  42 W9        29.91F
LIMON CO       PTCLDY    22  12  65 N7        29.96S
$$

...UNOFFICIAL OBSERVATIONS...

CITY           SKY/WX    TMP DP  RH WIND       PRES   REMARKS
LENORA KS        N/A     39  32  76 SW10        N/A
NORTON KS      CLEAR     30  16  55 SW9       29.85
SHARON SPRINGS   N/A     32  12  42 SW7G14      N/A
TRENTON NEB      N/A     39  32  76 W6          N/A
KIT CARSON CO    N/A     29  10  44 CALM        N/A
YUMA CO        FAIR      32  12  43 W9        29.87F
$$




USA.gov is the U.S. government's official web portal to all federal, state and local government web resources and services.